CUTE-1 (CO-55)

Last updated on Tue Sep 22 2026 00:03:27 GMT+0000 (Coordinated Universal Time)

1 27844U 03031E 26264.27513155 .00000165 00000+0 90365-4 0 9999 2 27844 98.6774 271.6428 0008385 266.4617 93.5603 14.24383809205357
UTC large
Height (km)
Speed (km/s)
/
Latitude / Longitude
Inclination (degrees)
Orbital Period (minutes)
Azimuth
Elevation
Range (km)
Doppler Factor

Next 0 passes for location: London (51.5072 / 0.1276)

No passes found over London.
CUTE-1 (CO-55)